Weather History for Auckland Airport, New Zealand

Change the Weather History Date:

Wednesday, March 13, 2013

  Actual Average Record
Temperature  
Mean Temperature 68 °F -  
Max Temperature 77 °F 68 °F - ()
Min Temperature 59 °F 56 °F - ()
Cooling Degree Days 3    
Growing Degree Days 18 (Base 50)    
Moisture  
Dew Point 60 °F    
Average Humidity 78    
Maximum Humidity 94    
Minimum Humidity 57    
Precipitation  
Precipitation 0.00 in 0.12 in - ()
Sea Level Pressure  
Sea Level Pressure 29.97 in    
Wind  
Wind Speed 5 mph ()    
Max Wind Speed 13 mph    
Max Gust Speed -    
Visibility 6.2 miles    
Events      
T = Trace of Precipitation, MM = Missing Value Source: Averaged Metar Reports

Daily Weather History Graph

Daily Weather History Graph

Search for Another Location

Airport:

Trip Planner

Search our weather history database for the weather conditions in past years. The results will help you decide how hot, cold, wet, or windy it might be!

Date:

Astronomy

Mar. 13, 2013 Rise Set
Actual Time 7:17 AM NZDT 7:42 PM NZDT
Civil Twilight 6:50 AM NZDT 8:08 PM NZDT
Nautical Twilight 6:20 AM NZDT 8:39 PM NZDT
Astronomical Twilight 5:49 AM NZDT 9:10 PM NZDT
Moon 8:24 AM NZDT (3/13) 8:08 PM NZDT (3/13)
Length of Visible Light 13h 18m
Length of Day
12h 25m
New Moon, 1% of the Moon is Illuminated
Mar 13
New Moon
Mar 20
First Quarter
Mar 27
Full
Apr 3
Last Quarter
Apr 10
New

Hourly Weather History & Observations

Time (NZDT) Temp. Dew Point Humidity Pressure Visibility Wind Dir Wind Speed Gust Speed Precip Events Conditions
12:00 AM 64.4 °F 57.2 °F 77% 30.01 in - NNW 3.5 mph - N/A   Clear
1:00 AM 64.4 °F 60.8 °F 88% 30.01 in - North 3.5 mph - N/A   Clear
2:00 AM 62.6 °F 59.0 °F 88% 30.01 in - NE 3.5 mph - N/A   Clear
3:00 AM 60.8 °F 57.2 °F 88% 30.01 in - North 4.6 mph - N/A   Clear
4:00 AM 60.8 °F 57.2 °F 88% 29.98 in - North 3.5 mph - N/A   Clear
5:00 AM 60.8 °F 59.0 °F 94% 29.98 in - North 4.6 mph - N/A   Clear
6:00 AM 60.8 °F 59.0 °F 94% 29.98 in - NNE 4.6 mph - N/A   Clear
7:00 AM 59.0 °F 57.2 °F 94% 29.98 in 6.2 mi NNE 4.6 mph - N/A   Partly Cloudy
8:00 AM 60.8 °F 59.0 °F 94% 29.98 in 6.2 mi NNE 4.6 mph - N/A   Partly Cloudy
9:00 AM 66.2 °F 64.4 °F 94% 29.98 in 6.2 mi NNE 3.5 mph - N/A   Partly Cloudy
10:00 AM 69.8 °F 62.6 °F 78% 29.98 in 6.2 mi West 3.5 mph - N/A   Scattered Clouds
11:00 AM 69.8 °F 62.6 °F 78% 29.98 in 6.2 mi SW 5.8 mph - N/A   Scattered Clouds
12:00 PM 73.4 °F 60.8 °F 65% 29.98 in 6.2 mi SSE 4.6 mph - N/A   Partly Cloudy
1:00 PM 75.2 °F 60.8 °F 61% 29.98 in 6.2 mi SSW 6.9 mph - N/A   Scattered Clouds
2:00 PM 75.2 °F 60.8 °F 61% 29.98 in 6.2 mi SSW 6.9 mph - N/A   Scattered Clouds
3:00 PM 77.0 °F 60.8 °F 57% 29.95 in 6.2 mi SW 11.5 mph - N/A   Partly Cloudy
4:00 PM 75.2 °F 59.0 °F 57% 29.92 in 6.2 mi SW 12.7 mph - N/A   Partly Cloudy
5:00 PM 75.2 °F 60.8 °F 61% 29.92 in 6.2 mi SW 12.7 mph - N/A   Partly Cloudy
6:00 PM 73.4 °F 62.6 °F 69% 29.92 in 6.2 mi SW 12.7 mph - N/A   Partly Cloudy
7:00 PM 71.6 °F 60.8 °F 69% 29.92 in 6.2 mi WSW 11.5 mph - N/A   Partly Cloudy
8:00 PM 68.0 °F 60.8 °F 78% 29.95 in 6.2 mi WSW 8.1 mph - N/A   Partly Cloudy
9:00 PM 66.2 °F 59.0 °F 78% 29.98 in - SW 6.9 mph - N/A   Clear
10:00 PM 66.2 °F 59.0 °F 78% 29.98 in - SSW 8.1 mph - N/A   Clear
11:00 PM 64.4 °F 59.0 °F 83% 30.01 in - SSW 3.5 mph - N/A   Clear